EUTELSAT HOTBIRD 13F

Last updated on Tue Sep 22 2026 00:03:15 GMT+0000 (Coordinated Universal Time)

1 54048U 22134A 26264.27786308 .00000083 00000+0 00000+0 0 9993 2 54048 0.0648 287.4318 0001890 81.4163 104.3583 1.00273036 14343
UTC large
Height (km)
Speed (km/s)
/
Latitude / Longitude
Inclination (degrees)
Orbital Period (minutes)
Azimuth
Elevation
Range (km)
Doppler Factor

Next 0 passes for location: London (51.5072 / 0.1276)

No passes found over London.
EUTELSAT HOTBIRD 13F